Location: Acheville
(50.3840°N, 2.8827°E)
Time: 01:08:54
(UTC+00:00)

FENGYUN 1C DEB - Pass Details

Date: 04 February 2023
Orbit: 634 x 940 km, 98.3° (Epoch: 28 March)

Event Time Altitude Azimuth Distance (km) Brightness Sun altitude
Rises 17:41:32 0° 176° (S) 3,260 ? -9.1°
Reaches altitude 10° 17:43:58 10° 181° (S) 2,287 ? -9.5°
Maximum altitude 17:48:52 54° 259° (W) 868 ? -10.3°
Drops below altitude 10° 17:53:26 10° 337° (NNW) 2,133 ? -11.0°
Sets 17:55:39 0° 342° (NNW) 3,020 ? -11.3°
